There are multiple Weather-warnings   Click here for more information


Meteo18 Weather Cam more information Meteo18 Weather Cam


Thunder radar more information blitzortung!


warning for Snow/Ice more information rain snow radar


Visit our other weather sites:

Template documentation
and downloads

And another site



Weather Underground History page Text

Daily Summary for January 16, 2018 Units:  English    Metric   Both
« Previous Day
Next Day »
Daily Weekly Monthly Yearly Custom
  High: Low: Average:
Temperature: TemperatureC °F 7.1 °F 9.3 °F
Dew Point: DewpointC °F 4.5 °F 7.2 °F
Humidity: Humidity % 73 % 87 %
Wind Speed: WindSpeedKMH mph 4.7 mph 18.8 mph
Wind Gust: WindSpeedGustKMH mph - -
Wind:- - WSW
Pressure: PressurehPa in 1005.3 in -
Precipitation: 8.9 in    
Historical Graphs
 
 
Tabular Data for January 16, 2018
Time Temperature Dew Point Pressure Wind Wind Speed Wind Gust Humidity Rainfall Rate (Hourly)
TemperatureC °F DewpointC °F PressurehPa in Calm     Humidity % HourlyPrecipMM in
00:02 9.0 °F 8.1 °F 1007.7 in West 16.3 mph 22.5 mph 94 % 0.3 in
00:08 9.0 °F 8.1 °F 1007.7 in WSW 13.0 mph 25.7 mph 94 % 0.3 in
00:14 8.9 °F 8.0 °F 1007.7 in SW 11.1 mph 25.7 mph 94 % 0.3 in
00:26 9.0 °F 8.1 °F 1008.0 in West 20.9 mph 22.5 mph 94 % 0.3 in
00:32 9.0 °F 8.1 °F 1008.0 in SW 19.5 mph 27.4 mph 94 % 0.3 in
00:38 9.1 °F 8.2 °F 1007.7 in SW 20.9 mph 27.4 mph 94 % 0.3 in
00:44 9.1 °F 8.2 °F 1008.0 in WSW 25.9 mph 30.6 mph 94 % 0.0 in
00:50 9.1 °F 8.0 °F 1007.7 in WSW 13.0 mph 32.2 mph 93 % 0.3 in
00:56 9.1 °F 8.2 °F 1007.7 in SW 16.3 mph 27.4 mph 94 % 0.3 in
01:02 9.1 °F 8.2 °F 1007.3 in SW 13.0 mph 29.0 mph 94 % 0.3 in
01:13 8.9 °F 8.0 °F 1007.3 in SW 20.9 mph 24.1 mph 94 % 0.5 in
01:23 8.9 °F 8.0 °F 1007.3 in WNW 4.7 mph 25.7 mph 94 % 0.5 in
01:29 8.9 °F 8.0 °F 1007.3 in SSW 11.1 mph 24.1 mph 94 % 0.5 in
01:35 8.9 °F 8.0 °F 1007.0 in WSW 9.7 mph 27.4 mph 94 % 0.5 in
01:45 9.0 °F 8.1 °F 1007.0 in WSW 20.9 mph 30.6 mph 94 % 0.5 in
01:51 9.0 °F 8.1 °F 1006.7 in SW 14.3 mph 19.3 mph 94 % 0.8 in
01:57 9.0 °F 8.2 °F 1006.7 in SSW 16.3 mph 19.3 mph 95 % 1.0 in
02:03 9.0 °F 8.2 °F 1006.7 in West 7.9 mph 17.7 mph 95 % 1.5 in
02:09 9.0 °F 8.2 °F 1006.7 in WSW 14.3 mph 32.2 mph 95 % 1.8 in
02:23 9.2 °F 8.1 °F 1006.3 in WSW 25.9 mph 38.6 mph 93 % 1.8 in
02:29 9.3 °F 8.2 °F 1006.7 in West 16.3 mph 30.6 mph 93 % 1.8 in
02:35 9.3 °F 8.2 °F 1006.7 in WSW 28.8 mph 33.8 mph 93 % 1.8 in
02:41 9.2 °F 8.1 °F 1006.7 in SW 20.9 mph 25.7 mph 93 % 2.0 in
02:49 9.2 °F 8.1 °F 1006.7 in WSW 16.3 mph 24.1 mph 93 % 1.5 in
02:55 9.2 °F 8.0 °F 1006.7 in SW 14.3 mph 35.4 mph 92 % 1.3 in
03:01 9.2 °F 8.0 °F 1006.7 in WSW 13.0 mph 25.7 mph 92 % 1.0 in
03:07 9.3 °F 8.1 °F 1006.3 in WSW 17.7 mph 45.1 mph 92 % 0.3 in
03:13 9.2 °F 8.1 °F 1006.7 in WSW 16.3 mph 30.6 mph 93 % 0.5 in
03:19 9.1 °F 8.0 °F 1006.7 in WSW 22.7 mph 30.6 mph 93 % 0.5 in
03:27 8.9 °F 8.0 °F 1006.7 in SW 13.0 mph 25.7 mph 94 % 0.5 in
03:35 8.8 °F 7.9 °F 1006.7 in West 19.5 mph 25.7 mph 94 % 0.8 in
03:41 8.9 °F 8.0 °F 1006.7 in SW 19.5 mph 30.6 mph 94 % 0.8 in
03:47 8.9 °F 8.0 °F 1006.7 in WSW 20.9 mph 30.6 mph 94 % 0.8 in
03:57 9.0 °F 7.9 °F 1007.0 in WSW 16.3 mph 35.4 mph 93 % 0.8 in
04:03 9.1 °F 7.9 °F 1007.0 in WSW 16.3 mph 27.4 mph 92 % 0.8 in
04:09 9.1 °F 7.7 °F 1007.3 in West 17.7 mph 30.6 mph 91 % 0.8 in
04:15 9.1 °F 7.7 °F 1007.3 in WSW 17.7 mph 24.1 mph 91 % 0.5 in
04:27 9.0 °F 7.8 °F 1007.0 in WSW 14.3 mph 20.9 mph 92 % 0.5 in
04:33 8.9 °F 7.7 °F 1006.7 in WSW 16.3 mph 25.7 mph 92 % 0.3 in
04:39 8.8 °F 7.6 °F 1007.0 in South 11.1 mph 25.7 mph 92 % 0.0 in
04:45 8.8 °F 7.6 °F 1007.0 in WSW 13.0 mph 20.9 mph 92 % 0.0 in
04:51 8.7 °F 7.6 °F 1007.0 in WSW 11.1 mph 19.3 mph 93 % 0.0 in
04:57 8.6 °F 7.7 °F 1007.0 in SSW 19.5 mph 19.5 mph 94 % 0.3 in
05:07 8.6 °F 7.8 °F 1007.0 in West 6.4 mph 29.0 mph 95 % 0.8 in
05:13 8.6 °F 7.8 °F 1007.0 in WSW 9.7 mph 32.2 mph 95 % 0.8 in
05:21 8.7 °F 7.8 °F 1007.0 in SSW 13.0 mph 22.5 mph 94 % 0.8 in
05:27 8.7 °F 7.8 °F 1006.7 in SW 13.0 mph 25.7 mph 94 % 0.8 in
05:33 8.7 °F 7.8 °F 1006.7 in SW 19.5 mph 32.2 mph 94 % 0.8 in
05:43 8.8 °F 7.7 °F 1006.7 in WSW 13.0 mph 32.2 mph 93 % 0.8 in
05:49 8.9 °F 7.8 °F 1006.7 in WSW 13.0 mph 24.1 mph 93 % 0.8 in
05:55 8.9 °F 7.7 °F 1007.0 in WSW 16.3 mph 22.5 mph 92 % 0.8 in
06:03 8.9 °F 7.8 °F 1007.0 in West 16.3 mph 22.5 mph 93 % 0.3 in
06:09 8.9 °F 7.8 °F 1006.7 in WSW 16.3 mph 22.5 mph 93 % 0.3 in
06:15 8.8 °F 7.7 °F 1006.7 in WSW 20.9 mph 24.1 mph 93 % 0.3 in
06:21 8.8 °F 7.7 °F 1006.7 in West 9.7 mph 22.5 mph 93 % 0.5 in
06:27 8.7 °F 7.8 °F 1006.7 in SW 13.0 mph 24.1 mph 94 % 0.5 in
06:39 8.6 °F 7.7 °F 1006.7 in WSW 13.0 mph 19.3 mph 94 % 0.8 in
06:45 8.6 °F 7.7 °F 1006.7 in West 13.0 mph 19.3 mph 94 % 0.8 in
06:51 8.5 °F 7.6 °F 1006.7 in WSW 14.3 mph 24.1 mph 94 % 1.0 in
06:57 8.4 °F 7.5 °F 1006.3 in West 13.0 mph 24.1 mph 94 % 1.0 in
07:03 8.4 °F 7.5 °F 1006.3 in West 19.5 mph 29.0 mph 94 % 1.0 in
07:09 8.6 °F 7.5 °F 1006.7 in WSW 11.1 mph 37.0 mph 93 % 0.8 in
07:15 8.7 °F 7.6 °F 1006.3 in West 11.1 mph 29.0 mph 93 % 0.8 in
07:21 8.7 °F 7.6 °F 1006.7 in WSW 7.9 mph 24.1 mph 93 % 0.5 in
07:27 8.8 °F 7.7 °F 1006.7 in West 19.5 mph 22.5 mph 93 % 0.5 in
07:33 8.8 °F 7.9 °F 1006.3 in WSW 16.3 mph 29.0 mph 94 % 0.5 in
07:39 8.7 °F 7.8 °F 1006.3 in SW 9.7 mph 24.1 mph 94 % 0.5 in
07:49 8.8 °F 8.0 °F 1006.3 in SW 14.3 mph 22.5 mph 95 % 0.5 in
07:57 8.9 °F 8.0 °F 1006.3 in West 27.4 mph 46.7 mph 94 % 0.3 in
08:03 9.1 °F 8.0 °F 1006.3 in West 19.5 mph 29.0 mph 93 % 0.3 in
08:15 9.1 °F 8.0 °F 1006.7 in West 16.3 mph 38.6 mph 93 % 0.3 in
08:21 9.1 °F 8.0 °F 1007.0 in WSW 16.3 mph 32.2 mph 93 % 0.3 in
08:27 9.1 °F 8.0 °F 1007.0 in SW 20.9 mph 38.6 mph 93 % 0.3 in
08:33 9.2 °F 8.1 °F 1007.0 in WSW 20.9 mph 35.4 mph 93 % 0.0 in
08:39 9.2 °F 8.0 °F 1007.0 in SW 27.4 mph 29.0 mph 92 % 0.0 in
08:45 9.3 °F 8.1 °F 1007.0 in SW 25.9 mph 32.2 mph 92 % 0.0 in
08:51 9.3 °F 7.9 °F 1007.0 in SW 19.5 mph 37.0 mph 91 % 0.0 in
08:57 9.3 °F 8.1 °F 1007.0 in WSW 19.5 mph 27.4 mph 92 % 0.0 in
09:03 9.3 °F 8.1 °F 1007.0 in West 20.9 mph 29.0 mph 92 % 0.0 in
09:13 9.3 °F 7.9 °F 1007.0 in West 11.1 mph 29.0 mph 91 % 0.0 in
09:19 9.3 °F 7.9 °F 1007.3 in WSW 16.3 mph 27.4 mph 91 % 0.0 in
09:29 9.4 °F 8.0 °F 1007.3 in SW 19.5 mph 29.0 mph 91 % 0.0 in
09:35 9.3 °F 7.9 °F 1007.3 in West 19.5 mph 32.2 mph 91 % 0.0 in
09:41 9.2 °F 8.0 °F 1007.3 in West 28.8 mph 37.0 mph 92 % 0.3 in
09:53 9.1 °F 8.0 °F 1007.3 in SSW 14.3 mph 24.1 mph 93 % 0.5 in
09:59 9.1 °F 8.0 °F 1007.7 in West 27.4 mph 29.0 mph 93 % 0.5 in
10:05 9.1 °F 8.0 °F 1007.3 in WSW 30.6 mph 30.6 mph 93 % 0.5 in
10:13 9.2 °F 8.0 °F 1008.0 in West 27.4 mph 37.0 mph 92 % 0.5 in
10:19 9.3 °F 8.1 °F 1008.0 in WSW 11.1 mph 33.8 mph 92 % 0.5 in
10:25 9.3 °F 7.9 °F 1007.7 in West 17.7 mph 40.2 mph 91 % 0.5 in
10:31 9.4 °F 7.8 °F 1008.0 in WSW 24.1 mph 46.7 mph 90 % 0.5 in
10:37 9.6 °F 7.9 °F 1008.0 in West 16.3 mph 29.0 mph 89 % 0.5 in
10:43 9.7 °F 8.0 °F 1008.0 in WSW 25.9 mph 30.6 mph 89 % 0.3 in
10:49 9.8 °F 8.1 °F 1008.4 in West 24.1 mph 37.0 mph 89 % 0.0 in
10:55 9.8 °F 8.1 °F 1008.4 in West 14.3 mph 27.4 mph 89 % 0.0 in
11:01 9.8 °F 8.1 °F 1008.4 in SW 27.4 mph 33.8 mph 89 % 0.0 in
11:11 9.9 °F 8.0 °F 1008.4 in West 16.3 mph 32.2 mph 88 % 0.0 in
11:17 10.1 °F 8.2 °F 1008.7 in West 19.5 mph 30.6 mph 88 % 0.0 in
11:23 10.1 °F 8.0 °F 1008.4 in West 16.3 mph 30.6 mph 87 % 0.0 in
11:33 9.7 °F 8.1 °F 1008.4 in SSW 11.1 mph 29.0 mph 90 % 0.5 in
11:45 9.6 °F 8.0 °F 1008.4 in West 32.0 mph 37.0 mph 90 % 0.5 in
11:51 9.8 °F 8.2 °F 1008.0 in WNW 9.7 mph 27.4 mph 90 % 0.8 in
11:57 10.2 °F 8.5 °F 1008.0 in WSW 35.2 mph 40.2 mph 89 % 0.8 in
12:03 10.4 °F 8.2 °F 1008.0 in WSW 32.0 mph 43.4 mph 86 % 0.8 in
12:15 10.7 °F 8.1 °F 1008.0 in WSW 33.8 mph 45.1 mph 84 % 0.8 in
12:21 10.9 °F 7.6 °F 1008.0 in West 35.2 mph 51.5 mph 80 % 0.8 in
12:27 10.9 °F 7.9 °F 1007.7 in WSW 24.1 mph 29.0 mph 82 % 0.5 in
12:37 11.0 °F 7.7 °F 1007.7 in West 27.4 mph 33.8 mph 80 % 0.3 in
12:44 11.2 °F 7.7 °F 1007.3 in West 27.4 mph 33.8 mph 79 % 0.3 in
12:54 11.3 °F 7.6 °F 1007.3 in West 16.3 mph 33.8 mph 78 % 0.0 in
13:00 11.3 °F 7.4 °F 1007.7 in West 25.9 mph 33.8 mph 77 % 0.0 in
13:10 11.4 °F 7.3 °F 1007.7 in West 20.9 mph 35.4 mph 76 % 0.0 in
13:12 11.4 °F 7.1 °F 1007.7 in West 33.8 mph 43.4 mph 75 % 0.0 in
13:18 11.4 °F 6.9 °F 1007.3 in West 30.6 mph 41.8 mph 74 % 0.0 in
13:24 11.3 °F 7.0 °F 1007.7 in WNW 20.9 mph 30.6 mph 75 % 0.0 in
13:30 11.3 °F 6.8 °F 1007.3 in WNW 25.9 mph 45.1 mph 74 % 0.0 in
13:36 11.4 °F 6.7 °F 1007.3 in WNW 19.5 mph 43.4 mph 73 % 0.0 in
13:42 11.4 °F 6.9 °F 1007.7 in West 7.9 mph 29.0 mph 74 % 0.0 in
13:48 11.3 °F 7.0 °F 1007.3 in West 14.3 mph 24.1 mph 75 % 0.0 in
13:54 11.4 °F 7.3 °F 1007.3 in West 19.5 mph 29.0 mph 76 % 0.0 in
14:00 11.6 °F 7.3 °F 1007.0 in WSW 19.5 mph 27.4 mph 75 % 0.0 in
14:06 11.5 °F 7.2 °F 1007.0 in WSW 25.9 mph 33.8 mph 75 % 0.0 in
14:12 11.4 °F 7.1 °F 1007.0 in West 22.7 mph 41.8 mph 75 % 0.0 in
14:18 11.2 °F 6.9 °F 1007.0 in WSW 14.3 mph 37.0 mph 75 % 0.0 in
14:24 11.1 °F 7.0 °F 1007.0 in West 24.1 mph 46.7 mph 76 % 0.0 in
14:30 11.1 °F 7.2 °F 1006.7 in West 17.7 mph 33.8 mph 77 % 0.0 in
14:40 11.1 °F 7.2 °F 1006.7 in West 19.5 mph 25.7 mph 77 % 0.0 in
14:48 11.1 °F 7.2 °F 1006.3 in WSW 27.4 mph 40.2 mph 77 % 0.0 in
14:54 11.2 °F 7.3 °F 1006.3 in WSW 28.8 mph 30.6 mph 77 % 0.0 in
15:00 11.2 °F 7.1 °F 1006.3 in WSW 30.6 mph 45.1 mph 76 % 0.0 in
15:06 11.3 °F 7.2 °F 1006.3 in West 19.5 mph 35.4 mph 76 % 0.0 in
15:12 11.2 °F 7.3 °F 1006.0 in West 20.9 mph 29.0 mph 77 % 0.0 in
15:18 11.1 °F 7.2 °F 1006.3 in WSW 19.5 mph 27.4 mph 77 % 0.0 in
15:24 10.6 °F 7.5 °F 1006.3 in WSW 19.5 mph 37.0 mph 81 % 0.0 in
15:30 10.6 °F 7.5 °F 1006.0 in West 16.3 mph 33.8 mph 81 % 0.0 in
15:36 10.6 °F 7.5 °F 1005.6 in West 17.7 mph 29.0 mph 81 % 0.0 in
15:42 10.6 °F 7.3 °F 1006.0 in WSW 33.8 mph 40.2 mph 80 % 0.0 in
15:48 10.8 °F 7.3 °F 1006.0 in West 16.3 mph 38.6 mph 79 % 0.0 in
15:54 10.7 °F 7.4 °F 1005.6 in WSW 22.7 mph 38.6 mph 80 % 0.3 in
16:00 10.6 °F 7.5 °F 1005.6 in West 16.3 mph 38.6 mph 81 % 0.3 in
16:12 10.6 °F 7.8 °F 1005.6 in WSW 30.6 mph 37.0 mph 83 % 0.3 in
16:16 10.6 °F 7.8 °F 1005.6 in West 20.9 mph 35.4 mph 83 % 0.3 in
16:18 10.6 °F 7.8 °F 1005.6 in WSW 28.8 mph 35.4 mph 83 % 0.3 in
16:26 10.3 °F 7.5 °F 1005.3 in WSW 24.1 mph 29.0 mph 83 % 0.3 in
16:32 10.4 °F 7.6 °F 1005.6 in SW 30.6 mph 41.8 mph 83 % 0.3 in
16:38 10.4 °F 7.6 °F 1005.6 in West 17.7 mph 25.7 mph 83 % 0.3 in
16:44 10.5 °F 7.6 °F 1005.6 in WSW 28.8 mph 35.4 mph 82 % 0.3 in
16:50 10.1 °F 7.5 °F 1005.6 in WNW 35.2 mph 40.2 mph 84 % 0.3 in
17:02 9.6 °F 6.9 °F 1006.0 in WSW 16.3 mph 41.8 mph 83 % 0.3 in
17:08 9.7 °F 7.3 °F 1005.6 in West 13.0 mph 20.9 mph 85 % 0.3 in
17:14 9.7 °F 7.3 °F 1006.0 in WNW 16.3 mph 16.3 mph 85 % 0.3 in
17:24 9.7 °F 7.1 °F 1006.0 in West 25.9 mph 33.8 mph 84 % 0.3 in
17:30 9.6 °F 7.2 °F 1006.0 in West 20.9 mph 40.2 mph 85 % 0.5 in
17:36 9.3 °F 6.9 °F 1006.0 in West 24.1 mph 40.2 mph 85 % 0.5 in
17:48 8.9 °F 6.7 °F 1006.0 in West 17.7 mph 29.0 mph 86 % 0.5 in
18:00 8.9 °F 7.0 °F 1006.3 in SW 7.9 mph 20.9 mph 88 % 0.5 in
18:06 8.8 °F 7.1 °F 1006.0 in West 17.7 mph 38.6 mph 89 % 1.3 in
18:12 8.8 °F 6.9 °F 1005.6 in WNW 13.0 mph 35.4 mph 88 % 1.3 in
18:18 8.9 °F 6.9 °F 1005.6 in WSW 24.1 mph 27.4 mph 87 % 1.3 in
18:24 9.1 °F 6.7 °F 1005.6 in West 13.0 mph 24.1 mph 85 % 1.3 in
18:30 9.1 °F 6.7 °F 1005.6 in WSW 14.3 mph 29.0 mph 85 % 1.0 in
18:36 9.2 °F 6.8 °F 1006.0 in West 14.3 mph 37.0 mph 85 % 1.0 in
18:42 9.2 °F 6.8 °F 1005.6 in WSW 17.7 mph 24.1 mph 85 % 0.8 in
18:50 9.3 °F 6.4 °F 1005.6 in WNW 19.5 mph 30.6 mph 82 % 0.8 in
18:56 9.3 °F 6.0 °F 1006.0 in WSW 27.4 mph 38.6 mph 80 % 0.8 in
19:02 9.4 °F 5.9 °F 1006.0 in West 24.1 mph 35.4 mph 79 % 0.5 in
19:08 9.4 °F 5.8 °F 1006.0 in West 24.1 mph 33.8 mph 78 % 0.0 in
19:16 9.3 °F 5.7 °F 1006.0 in West 11.1 mph 27.4 mph 78 % 0.0 in
19:22 9.2 °F 5.9 °F 1006.0 in West 9.7 mph 17.7 mph 80 % 0.0 in
19:28 9.0 °F 5.9 °F 1006.0 in West 13.0 mph 14.5 mph 81 % 0.0 in
19:34 8.9 °F 5.8 °F 1005.6 in NW 4.7 mph 11.3 mph 81 % 0.0 in
19:40 8.7 °F 5.8 °F 1006.0 in WSW 6.4 mph 12.9 mph 82 % 0.0 in
19:50 8.4 °F 5.9 °F 1006.0 in West 11.1 mph 11.3 mph 84 % 0.0 in
19:58 8.3 °F 5.6 °F 1006.0 in West 6.4 mph 17.7 mph 83 % 0.0 in
20:10 8.6 °F 5.2 °F 1006.0 in West 20.9 mph 27.4 mph 79 % 0.0 in
20:16 8.6 °F 5.0 °F 1006.3 in West 24.1 mph 30.6 mph 78 % 0.0 in
20:22 8.8 °F 4.8 °F 1006.0 in WSW 20.9 mph 29.0 mph 76 % 0.0 in
20:28 8.9 °F 4.7 °F 1006.0 in WSW 32.0 mph 35.4 mph 75 % 0.0 in
20:34 8.9 °F 4.9 °F 1006.0 in WSW 20.9 mph 30.6 mph 76 % 0.3 in
20:54 8.7 °F 5.6 °F 1006.3 in SW 19.5 mph 27.4 mph 81 % 0.3 in
21:00 8.6 °F 5.5 °F 1006.3 in WSW 17.7 mph 33.8 mph 81 % 0.3 in
21:10 7.7 °F 5.0 °F 1006.0 in West 27.4 mph 53.1 mph 83 % 0.5 in
21:16 7.4 °F 5.2 °F 1006.0 in WSW 17.7 mph 30.6 mph 86 % 0.5 in
21:22 7.5 °F 5.5 °F 1006.3 in West 14.3 mph 29.0 mph 87 % 0.5 in
21:28 7.4 °F 5.4 °F 1006.3 in West 11.1 mph 20.9 mph 87 % 0.5 in
21:34 7.5 °F 5.5 °F 1006.0 in SW 13.0 mph 30.6 mph 87 % 0.3 in
21:40 7.7 °F 5.7 °F 1006.0 in WSW 20.9 mph 33.8 mph 87 % 0.3 in
21:52 7.6 °F 5.6 °F 1006.0 in WSW 27.4 mph 32.2 mph 87 % 0.5 in
22:00 7.2 °F 5.3 °F 1006.0 in WSW 20.9 mph 24.1 mph 88 % 0.5 in
22:06 7.1 °F 5.4 °F 1006.0 in West 9.7 mph 22.5 mph 89 % 0.5 in
22:14 7.1 °F 5.6 °F 1006.0 in WNW 6.4 mph 14.5 mph 90 % 0.5 in
22:20 7.1 °F 5.6 °F 1006.0 in West 7.9 mph 14.5 mph 90 % 0.5 in
22:28 7.2 °F 5.3 °F 1006.0 in West 20.9 mph 29.0 mph 88 % 0.5 in
22:34 7.4 °F 5.2 °F 1006.3 in SW 25.9 mph 25.9 mph 86 % 0.5 in
22:41 7.4 °F 5.0 °F 1006.0 in SW 25.9 mph 32.2 mph 85 % 0.5 in
22:46 7.6 °F 5.1 °F 1006.0 in West 13.0 mph 33.8 mph 84 % 0.5 in
22:52 7.6 °F 5.1 °F 1006.0 in WSW 17.7 mph 20.9 mph 84 % 0.5 in
22:58 7.6 °F 4.9 °F 1006.0 in WSW 20.9 mph 29.0 mph 83 % 0.3 in
23:04 7.7 °F 4.8 °F 1006.0 in SW 19.5 mph 32.2 mph 82 % 0.3 in
23:11 7.7 °F 4.8 °F 1006.0 in WSW 28.8 mph 33.8 mph 82 % 0.3 in
23:17 7.7 °F 4.6 °F 1005.6 in WNW 14.3 mph 30.6 mph 81 % 0.3 in
23:25 7.7 °F 4.6 °F 1006.0 in West 27.4 mph 29.0 mph 81 % 0.3 in
23:31 7.7 °F 4.8 °F 1005.6 in SW 17.7 mph 27.4 mph 82 % 0.3 in
23:43 7.6 °F 4.5 °F 1006.0 in West 33.8 mph 38.6 mph 81 % 0.0 in
23:49 7.6 °F 4.5 °F 1006.0 in WSW 14.3 mph 38.6 mph 81 % 0.0 in
23:55 7.6 °F 4.5 °F 1006.0 in West 24.1 mph 33.8 mph 81 % 0.0 in
Meteo18
Compliments of Weather Underground - 4 mb

Script developed by  Jim McMurry - jmcmurry@mwt.net Adapted for the template by  Wim van der Kuil - Leuven-Template.eu

You find our weather info also at:

European Weather Network

Weather Underground

Equipment we use:

Weather-station
Davis Vue

Weather-program
Meteobridge

Weather-server
Raspberry PI 2 B+

Provider
1 and 1

Davis Vue

Meteobridge

Raspberry PI 2 B+

1 and 1